Location: Doughton Park
(36.4224°N, 81.1835°W)
Time: 05:28:00
(UTC-05:00)

Amateur Radio Satellites - All Passes

Search period start: 18 November 2017 04:58
Search period end: 19 November 2017 04:58
Location: Doughton Park, 36.4224°N, 81.1835°W

Satellite Date Start Highest point End Downlink Frequencies (MHz)
Time Altitude Azimuth
BEESAT 2 18 Nov 05:01:42 05:05:33 45° 303° (WNW) 05:09:27 435.950
nSIGHT-1 18 Nov 05:07:12 05:10:23 70° 39° (NE) 05:13:33 .
ITAMSAT 1 18 Nov 05:12:10 05:16:27 26° 293° (WNW) 05:20:43 435.822/435.867
AO-7 18 Nov 05:15:48 05:23:19 39° 297° (WNW) 05:30:50 .
CUBESAT XI-V 18 Nov 05:18:32 05:20:21 12° 269° (W) 05:22:10 437.345
RS-15 18 Nov 05:25:01 05:36:41 72° 246° (WSW) 05:47:43 29.354- 29.394
AO-85 18 Nov 05:30:22 05:34:11 59° 302° (WNW) 05:38:08 145.980
XW-2B 18 Nov 05:31:20 05:33:14 13° 93° (E) 05:35:08 145.730 - 145.750
ISS 18 Nov 05:39:32 05:42:46 62° 224° (SW) 05:45:59 437.550
DOVE 4 18 Nov 05:39:55 05:45:09 74° 284° (WNW) 05:50:07 437.250
LilacSat-2 18 Nov 05:52:51 05:56:12 28° 97° (E) 05:59:32 437.200
XW-2C 18 Nov 05:55:28 05:58:47 28° 97° (E) 06:02:05 145.795 - 145.815
KKS-1 18 Nov 05:56:20 05:59:29 19° 265° (W) 06:02:40 437.445
NUDT-PHONESAT 18 Nov 06:01:18 06:04:13 22° 96° (E) 06:07:07 437.300
XW-2F 18 Nov 06:09:23 06:12:57 39° 98° (E) 06:16:31 145.980 - 146.000
CUTE 1.7 + AOD 2 18 Nov 06:16:35 06:17:46 11° 91° (E) 06:18:55 437.475
CUTE-I 18 Nov 06:17:42 06:22:48 42° 99° (E) 06:27:50 437.470
STRAND 1 18 Nov 06:20:49 06:25:15 30° 69° (ENE) 06:29:42 437.568
STARS 18 Nov 06:30:44 06:33:57 20° 265° (W) 06:37:12 437.465
KAITUO 1B 18 Nov 06:43:26 06:47:12 89° 130° (SE) 06:50:58 145.475/437.950
XW-2D 18 Nov 06:49:09 06:52:49 50° 285° (WNW) 06:56:31 145.860 - 145.880
FO-29 18 Nov 06:49:20 06:53:31 18° 58° (ENE) 06:57:56 435.910
YUBILEINY 18 Nov 06:51:47 07:00:22 61° 280° (W) 07:09:05 435.215
SEEDS 18 Nov 06:52:34 06:55:30 18° 94° (E) 06:58:24 437.485
XW-2B 18 Nov 07:04:02 07:07:29 34° 287° (WNW) 07:10:56 145.730 - 145.750
HO-68 18 Nov 07:06:11 07:13:06 49° 100° (E) 07:19:58 435.675
SO-50 18 Nov 07:06:13 07:10:09 26° 51° (NE) 07:14:06 436.795
AAUSAT CUBESAT 2 18 Nov 07:11:31 07:13:03 12° 92° (E) 07:14:35 437.432
LilacSat-2 18 Nov 07:27:45 07:30:13 17° 291° (WNW) 07:32:42 437.200
XW-2C 18 Nov 07:30:16 07:32:42 17° 291° (WNW) 07:35:08 145.795 - 145.815
NUDT-PHONESAT 18 Nov 07:35:10 07:37:54 20° 290° (WNW) 07:40:39 437.300
ZACube-1 18 Nov 07:37:08 07:39:28 15° 93° (E) 07:41:47 437.345
UWE-3 18 Nov 07:37:41 07:41:21 30° 97° (E) 07:44:59 435.000/436.395/437.385
RS-15 18 Nov 07:42:30 07:46:43 13° 265° (W) 07:50:53 29.354- 29.394
XW-2F 18 Nov 07:45:08 07:46:39 12° 293° (WNW) 07:48:11 145.980 - 146.000
CUTE 1.7 + AOD 2 18 Nov 07:49:41 07:53:50 52° 285° (WNW) 07:58:00 437.475
CUTE-I 18 Nov 07:58:28 08:02:30 22° 294° (WNW) 08:06:32 437.470
STRAND 1 18 Nov 07:59:57 08:04:20 28° 264° (W) 08:08:46 437.568
CUBEBUG 2 18 Nov 08:09:29 08:13:35 55° 285° (WNW) 08:17:37 437.445
TIGRISAT 18 Nov 08:11:28 08:12:13 10° 64° (ENE) 08:12:59 435.000
XW-2A 18 Nov 08:17:54 08:21:15 75° 283° (WNW) 08:24:36 145.665 - 145.685
SEEDS 18 Nov 08:27:25 08:31:12 32° 288° (WNW) 08:34:57 437.485
AO-73 18 Nov 08:28:55 08:32:58 55° 100° (E) 08:37:03 145.935
FO-29 18 Nov 08:31:13 08:37:30 78° 258° (WSW) 08:44:41 435.910
AAUSAT CUBESAT 2 18 Nov 08:44:41 08:48:43 47° 286° (WNW) 08:52:43 437.432
SO-50 18 Nov 08:46:27 08:50:36 32° 247° (WSW) 08:54:47 436.795
Oscar 11 18 Nov 08:49:15 08:53:33 64° 101° (E) 08:57:51 .
HO-68 18 Nov 08:54:27 09:00:29 30° 297° (WNW) 09:06:29 435.675
PCSat 18 Nov 08:54:35 08:56:03 11° 43° (NE) 08:57:31 145.827
ZACube-1 18 Nov 09:12:03 09:15:51 37° 287° (WNW) 09:19:41 437.345
UWE-3 18 Nov 09:14:42 09:17:34 18° 291° (WNW) 09:20:25 435.000/436.395/437.385
UNISAT 6 18 Nov 09:38:21 09:42:58 75° 257° (WSW) 09:47:32 437.425
TIGRISAT 18 Nov 09:43:41 09:48:18 72° 259° (WSW) 09:52:51 435.000
DELFI C3 18 Nov 09:47:32 09:51:29 58° 100° (E) 09:55:23 145.870
Max Valier Satellite 18 Nov 10:02:01 10:05:39 60° 101° (E) 10:09:16 145.860
PRISM 18 Nov 10:05:21 10:09:26 77° 77° (ENE) 10:13:34 437.425
AO-73 18 Nov 10:07:48 10:08:42 11° 295° (WNW) 10:09:36 145.935
EO-88 18 Nov 10:08:27 10:12:00 48° 100° (E) 10:15:31 145.990 - 145.960
POLYITAN 1 18 Nov 10:25:34 10:27:11 12° 65° (ENE) 10:28:48 437.675
Oscar 11 18 Nov 10:28:29 10:29:06 10° 296° (WNW) 10:29:43 .
AIST 2D 18 Nov 10:34:15 10:37:29 40° 74° (ENE) 10:40:44 435.315
PCSat 18 Nov 10:34:58 10:40:24 73° 62° (ENE) 10:45:46 145.827
LO-87 18 Nov 10:45:04 10:47:03 14° 94° (E) 10:49:01 145.935 - 145.965
QB50P2 18 Nov 10:46:35 10:49:58 24° 70° (ENE) 10:53:22 145.880/145.840
ESTCUBE 1 18 Nov 11:06:52 11:10:27 23° 95° (E) 11:14:01 437.505/2401.250
FALCONSAT 3 18 Nov 11:10:45 11:14:04 32° 159° (SSE) 11:17:24 435.103
DUCHIFAT 1 18 Nov 11:40:44 11:44:57 70° 76° (ENE) 11:49:09 145.980
EO-79 18 Nov 11:43:48 11:48:03 80° 256° (WSW) 11:52:20 145.935-145.965
NANOSAT C BR1 18 Nov 11:49:20 11:53:34 78° 257° (WSW) 11:57:49 145.865
POLYITAN 1 18 Nov 11:58:18 12:02:27 53° 260° (W) 12:06:37 437.675
LO-87 18 Nov 12:17:27 12:20:28 26° 288° (WNW) 12:23:27 145.935 - 145.965
BEESAT 3 18 Nov 12:18:05 12:21:37 31° 54° (NE) 12:25:05 437.485
PCSat 18 Nov 12:20:52 12:23:04 13° 257° (WSW) 12:25:17 145.827
QB50P2 18 Nov 12:22:06 12:25:37 25° 264° (W) 12:29:08 145.880/145.840
ESTCUBE 1 18 Nov 12:43:18 12:47:12 29° 290° (WNW) 12:51:05 437.505/2401.250
BUGSAT 1 18 Nov 12:46:19 12:50:33 85° 257° (WSW) 12:54:46 437.445
FALCONSAT 3 18 Nov 12:49:15 12:52:57 72° 174° (S) 12:56:38 435.103
Gurwin Techsat 1B 18 Nov 13:01:23 13:06:28 48° 72° (ENE) 13:11:34 435.225
Oscar 19 18 Nov 13:02:07 13:07:12 70° 74° (ENE) 13:12:18 437.125/150
SPROUT 18 Nov 13:04:16 13:08:29 69° 284° (WNW) 13:12:41 437.525
O/OREOS (USA 219) 18 Nov 13:13:42 13:16:57 19° 100° (E) 13:20:13 437.305
VELOX 1 18 Nov 13:17:41 13:22:09 82° 284° (WNW) 13:26:35 145.980
BEESAT 2 18 Nov 13:21:22 13:25:13 43° 56° (ENE) 13:29:00 435.950
UKube-1 18 Nov 13:27:58 13:30:31 15° 94° (E) 13:33:03 .
50 SAT 18 Nov 13:28:29 13:31:14 25° 98° (E) 13:33:57 437.505
BEESAT 3 18 Nov 13:56:12 13:58:54 18° 250° (WSW) 14:01:34 437.485
AO-85 18 Nov 14:02:42 14:07:22 54° 58° (ENE) 14:12:21 145.980
DX 1 18 Nov 14:13:27 14:17:51 90° 86° (E) 14:22:13 434.975-435.025
AO-7 18 Nov 14:19:00 14:26:50 49° 65° (ENE) 14:34:41 .
M-CUBED/EXP-1 PRIME 18 Nov 14:23:29 14:26:46 48° 256° (WSW) 14:30:19 437.505
FALCONSAT 3 18 Nov 14:28:19 14:31:59 66° 189° (S) 14:35:39 435.103
Gurwin Techsat 1B 18 Nov 14:43:00 14:46:37 18° 267° (W) 14:50:14 435.225
Oscar 19 18 Nov 14:45:21 14:46:57 11° 269° (W) 14:48:33 437.125/150
BEESAT 18 Nov 14:45:23 14:48:06 15° 93° (E) 14:50:48 436.000
ITAMSAT 1 18 Nov 14:47:48 14:52:40 40° 70° (ENE) 14:57:32 435.822/435.867
O/OREOS (USA 219) 18 Nov 14:51:51 14:56:04 35° 296° (WNW) 15:00:18 437.305
ITUPSAT 1 18 Nov 14:52:28 14:55:40 18° 94° (E) 14:58:50 437.325
BEESAT 2 18 Nov 15:00:32 15:02:31 13° 251° (WSW) 15:04:29 435.950
50 SAT 18 Nov 15:01:38 15:03:03 12° 292° (WNW) 15:04:29 437.505
UKube-1 18 Nov 15:02:37 15:06:39 39° 288° (WNW) 15:10:41 .
NO-84 18 Nov 15:22:17 15:25:23 28° 125° (SE) 15:28:43 435.350 FM
MOZHAYETS 4 18 Nov 15:33:51 15:38:25 72° 102° (ESE) 15:42:58
CUBESAT XI-V 18 Nov 15:38:13 15:41:14 17° 93° (E) 15:44:13 437.345
AO-85 18 Nov 15:44:25 15:47:27 16° 250° (WSW) 15:50:35 145.980
FALCONSAT 3 18 Nov 16:07:40 16:10:49 26° 203° (SSW) 16:13:56 435.103
AO-7 18 Nov 16:12:24 16:19:41 34° 262° (W) 16:27:02 .
BEESAT 18 Nov 16:21:31 16:26:05 48° 288° (WNW) 16:30:37 436.000
ITAMSAT 1 18 Nov 16:28:17 16:32:13 21° 265° (W) 16:36:10 435.822/435.867
ITUPSAT 1 18 Nov 16:29:10 16:33:37 41° 289° (WNW) 16:38:03 437.325
LilacSat-2 18 Nov 16:34:58 16:35:27 10° 66° (ENE) 16:35:56 437.200
DOVE 4 18 Nov 16:41:46 16:46:39 83° 76° (ENE) 16:51:50 437.250
XW-2F 18 Nov 16:49:05 16:50:55 13° 68° (ENE) 16:52:46 145.980 - 146.000
JUGNU 18 Nov 16:56:39 16:59:33 14° 174° (S) 17:02:28 437.505
NO-84 18 Nov 16:59:19 17:02:39 29° 323° (NW) 17:06:13 435.350 FM
YUBILEINY 18 Nov 17:04:57 17:13:43 61° 80° (E) 17:22:23 435.215
CUBESAT XI-V 18 Nov 17:14:19 17:18:43 42° 288° (WNW) 17:23:08 437.345
MOZHAYETS 4 18 Nov 17:14:25 17:14:55 10° 297° (WNW) 17:15:25
KAITUO 1B 18 Nov 17:20:59 17:24:03 25° 72° (ENE) 17:27:08 145.475/437.950
XW-2D 18 Nov 17:27:23 17:30:58 47° 75° (ENE) 17:34:34 145.860 - 145.880
HO-68 18 Nov 17:32:45 17:38:39 28° 63° (ENE) 17:44:33 435.675
RS-15 18 Nov 17:34:53 17:43:42 24° 100° (E) 17:52:31 29.354- 29.394
CUTE-I 18 Nov 17:36:49 17:42:01 55° 73° (ENE) 17:47:16 437.470
XW-2B 18 Nov 17:41:57 17:45:40 73° 76° (ENE) 17:49:24 145.730 - 145.750
KKS-1 18 Nov 17:48:03 17:52:32 82° 284° (WNW) 17:56:59 437.445
LilacSat-2 18 Nov 18:05:39 18:09:15 46° 261° (W) 18:12:53 437.200
XW-2C 18 Nov 18:07:30 18:11:05 47° 260° (W) 18:14:43 145.795 - 145.815
NUDT-PHONESAT 18 Nov 18:10:20 18:13:57 67° 260° (W) 18:17:34 437.300
STARS 18 Nov 18:20:58 18:25:23 89° 82° (E) 18:29:45 437.465
XW-2F 18 Nov 18:21:20 18:24:42 33° 262° (W) 18:28:05 145.980 - 146.000
UWE-3 18 Nov 18:32:24 18:35:39 20° 69° (ENE) 18:38:52 435.000/436.395/437.385
STRAND 1 18 Nov 18:35:46 18:37:35 12° 91° (E) 18:39:22 437.568
SRMSAT 18 Nov 18:37:02 18:38:11 11° 167° (SSE) 18:39:20 437.500
CUTE 1.7 + AOD 2 18 Nov 18:39:12 18:43:22 75° 77° (ENE) 18:47:35 437.475
JUGNU 18 Nov 18:44:43 18:47:45 14° 185° (S) 18:50:46 437.505
XW-2A 18 Nov 18:46:52 18:49:24 20° 71° (ENE) 18:51:55 145.665 - 145.685
KAITUO 1B 18 Nov 18:55:40 18:58:00 16° 266° (W) 19:00:22 145.475/437.950
YUBILEINY 18 Nov 19:02:57 19:09:47 26° 277° (W) 19:16:37 435.215
CUBEBUG 2 18 Nov 19:03:58 19:08:38 84° 76° (ENE) 19:13:12 437.445
SEEDS 18 Nov 19:15:38 19:19:45 67° 260° (W) 19:23:55 437.485
HO-68 18 Nov 19:19:01 19:25:57 52° 259° (W) 19:32:58 435.675
CUTE-I 18 Nov 19:19:04 19:22:21 16° 267° (W) 19:25:40 437.470
AO-73 18 Nov 19:21:46 19:25:35 31° 72° (ENE) 19:29:21 145.935
AAUSAT CUBESAT 2 18 Nov 19:31:30 19:35:35 76° 77° (ENE) 19:39:43 437.432
Oscar 11 18 Nov 19:41:29 19:45:21 34° 72° (ENE) 19:49:14 .
RS-15 18 Nov 19:42:22 19:54:42 85° 300° (WNW) 20:07:04 29.354- 29.394
FO-29 18 Nov 19:44:37 19:50:18 22° 90° (E) 19:55:44 435.910
ZACube-1 18 Nov 20:04:23 20:08:46 71° 259° (W) 20:13:03 437.345
UWE-3 18 Nov 20:07:47 20:11:52 33° 262° (W) 20:15:52 435.000/436.395/437.385
STRAND 1 18 Nov 20:12:05 20:17:11 68° 286° (WNW) 20:22:14 437.568
XW-2A 18 Nov 20:19:51 20:22:00 16° 265° (W) 20:24:09 145.665 - 145.685
SRMSAT 18 Nov 20:23:12 20:26:31 15° 177° (S) 20:29:52 437.500
DELFI C3 18 Nov 20:30:31 20:33:38 23° 70° (ENE) 20:36:46 145.870
Max Valier Satellite 18 Nov 20:38:59 20:41:31 18° 70° (ENE) 20:44:03 145.860
ISS 18 Nov 20:42:50 20:44:31 13° 128° (SE) 20:46:11 437.550
EO-88 18 Nov 20:44:42 20:46:42 14° 69° (ENE) 20:48:43 145.990 - 145.960
AO-73 18 Nov 20:58:41 21:01:49 19° 265° (W) 21:04:55 145.935
Oscar 11 18 Nov 21:18:42 21:21:33 17° 266° (W) 21:24:24 .
SO-50 18 Nov 21:20:07 21:22:10 13° 108° (ESE) 21:24:13 436.795
FO-29 18 Nov 21:28:01 21:35:52 71° 287° (WNW) 21:43:16 435.910
UNISAT 6 18 Nov 21:33:05 21:36:40 26° 96° (E) 21:40:12 437.425
TIGRISAT 18 Nov 21:38:12 21:41:49 27° 96° (E) 21:45:25 435.000
nSIGHT-1 18 Nov 21:42:29 21:45:41 86° 142° (SE) 21:48:54 .
PRISM 18 Nov 21:50:49 21:52:40 13° 93° (E) 21:54:31 437.425
NO-84 18 Nov 21:57:38 21:59:39 13° 26° (NNE) 22:01:40 435.350 FM
RS-15 18 Nov 21:59:07 22:09:12 28° 324° (NW) 22:19:14 29.354- 29.394
ESTCUBE 1 18 Nov 22:04:44 22:07:27 16° 66° (ENE) 22:10:10 437.505/2401.250
DELFI C3 18 Nov 22:05:08 22:08:15 22° 265° (W) 22:11:23 145.870
SRMSAT 18 Nov 22:11:58 22:14:54 14° 187° (S) 22:17:50 437.500
Max Valier Satellite 18 Nov 22:12:10 22:15:09 23° 264° (W) 22:18:07 145.860
EO-88 18 Nov 22:16:53 22:20:04 29° 263° (W) 22:23:15 145.990 - 145.960
ISS 18 Nov 22:17:29 22:20:40 49° 322° (NW) 22:23:51 437.550
LO-87 18 Nov 22:49:45 22:53:21 73° 77° (ENE) 22:56:58 145.935 - 145.965
SO-50 18 Nov 22:57:44 23:02:06 54° 303° (WNW) 23:06:31 436.795
UNISAT 6 18 Nov 23:09:53 23:13:13 22° 291° (WNW) 23:16:32 437.425
TIGRISAT 18 Nov 23:15:05 23:18:21 22° 291° (WNW) 23:21:35 435.000
FO-29 18 Nov 23:15:58 23:19:25 14° 305° (NW) 23:22:50 435.910
nSIGHT-1 18 Nov 23:20:36 23:22:18 13° 335° (NNW) 23:24:00 .
PRISM 18 Nov 23:24:09 23:28:07 44° 287° (WNW) 23:32:03 437.425
O/OREOS (USA 219) 18 Nov 23:25:19 23:29:05 25° 62° (ENE) 23:32:48 437.305
DUCHIFAT 1 18 Nov 23:28:52 23:30:47 13° 93° (E) 23:32:41 145.980
EO-79 18 Nov 23:31:44 23:34:45 19° 95° (E) 23:37:45 145.935-145.965
NO-84 18 Nov 23:33:32 23:37:47 60° 44° (NE) 23:41:55 435.350 FM
AIST 2D 18 Nov 23:34:01 23:37:32 75° 101° (E) 23:41:03 435.315
PCSat 18 Nov 23:34:09 23:36:26 13° 103° (ESE) 23:38:44 145.827
NANOSAT C BR1 18 Nov 23:36:52 23:39:53 19° 95° (E) 23:42:52 145.865
ESTCUBE 1 18 Nov 23:39:37 23:43:51 42° 261° (W) 23:48:07 437.505/2401.250
POLYITAN 1 18 Nov 23:45:45 23:49:22 28° 97° (E) 23:52:58 437.675
SPROUT 18 Nov 23:54:24 23:58:38 62° 75° (ENE) 00:02:53 437.525
ISS 18 Nov 23:57:25 23:57:46 10° 340° (NNW) 23:58:07 437.550
QB50P2 19 Nov 00:08:25 00:12:35 61° 101° (ESE) 00:16:43 145.880/145.840
VELOX 1 19 Nov 00:11:54 00:16:15 62° 75° (ENE) 00:20:39 145.980
RS-15 19 Nov 00:21:34 00:27:54 15° 360° (N) 00:34:08 29.354- 29.394
BUGSAT 1 19 Nov 00:31:48 00:34:14 15° 94° (E) 00:36:39 437.445
DUCHIFAT 1 19 Nov 01:02:40 01:06:37 42° 287° (WNW) 01:10:32 145.980
O/OREOS (USA 219) 19 Nov 01:04:36 01:08:24 27° 258° (WSW) 01:12:11 437.305
DX 1 19 Nov 01:06:03 01:10:18 55° 74° (ENE) 01:14:35 434.975-435.025
EO-79 19 Nov 01:06:51 01:10:29 29° 289° (WNW) 01:14:07 145.935-145.965
NANOSAT C BR1 19 Nov 01:11:57 01:15:33 29° 289° (WNW) 01:19:10 145.865
NO-84 19 Nov 01:12:14 01:14:42 15° 239° (WSW) 01:17:07 435.350 FM
PCSat 19 Nov 01:13:45 01:19:08 72° 297° (WNW) 01:24:34 145.827
Oscar 19 19 Nov 01:16:34 01:21:03 30° 97° (E) 01:25:32 437.125/150
Gurwin Techsat 1B 19 Nov 01:20:45 01:24:55 23° 95° (E) 01:29:05 435.225
POLYITAN 1 19 Nov 01:21:51 01:24:57 20° 291° (WNW) 01:28:02 437.675
50 SAT 19 Nov 01:24:14 01:27:26 67° 259° (W) 01:30:41 437.505
QB50P2 19 Nov 01:47:22 01:47:48 10° 296° (WNW) 01:48:12 145.880/145.840
BEESAT 19 Nov 01:49:52 01:52:22 14° 64° (ENE) 01:54:54 436.000
UKube-1 19 Nov 01:53:48 01:58:04 67° 259° (WSW) 02:02:23 .
ITUPSAT 1 19 Nov 01:57:10 02:00:11 17° 65° (ENE) 02:03:12 437.325
M-CUBED/EXP-1 PRIME 19 Nov 02:04:26 02:06:56 14° 98° (E) 02:09:27 437.505
BUGSAT 1 19 Nov 02:06:02 02:09:40 33° 288° (WNW) 02:13:15 437.445
AO-7 19 Nov 02:25:21 02:30:11 16° 92° (E) 02:35:01 .
MOZHAYETS 4 19 Nov 02:32:57 02:37:21 50° 74° (ENE) 02:41:45
RS-15 19 Nov 02:36:36 02:46:28 28° 36° (NE) 02:55:53 29.354- 29.394
CUBESAT XI-V 19 Nov 02:40:14 02:42:13 13° 65° (ENE) 02:44:13 437.345
DX 1 19 Nov 02:45:29 02:46:46 11° 268° (W) 02:48:03 434.975-435.025
Oscar 19 19 Nov 02:55:52 03:00:15 29° 292° (WNW) 03:04:38 437.125/150
Gurwin Techsat 1B 19 Nov 03:00:02 03:04:56 38° 290° (WNW) 03:09:48 435.225
PCSat 19 Nov 03:02:06 03:03:29 11° 317° (NW) 03:04:52 145.827
ITAMSAT 1 19 Nov 03:04:15 03:07:36 17° 93° (E) 03:10:55 435.822/435.867
BEESAT 2 19 Nov 03:11:32 03:13:33 14° 109° (ESE) 03:15:35 435.950
ISS 19 Nov 03:12:26 03:13:28 11° 21° (NNE) 03:14:30 437.550
BEESAT 19 Nov 03:24:57 03:29:38 56° 259° (W) 03:34:20 436.000
ITUPSAT 1 19 Nov 03:32:59 03:37:35 46° 260° (W) 03:42:13 437.325
M-CUBED/EXP-1 PRIME 19 Nov 03:37:03 03:41:27 52° 291° (WNW) 03:45:57 437.505
BEESAT 3 19 Nov 03:41:34 03:45:31 63° 301° (WNW) 03:49:30 437.485
nSIGHT-1 19 Nov 04:11:35 04:14:30 32° 35° (NE) 04:17:24 .
MOZHAYETS 4 19 Nov 04:12:31 04:14:44 13° 268° (W) 04:16:57
YUBILEINY 19 Nov 04:13:08 04:15:39 11° 75° (ENE) 04:18:11 435.215
CUBESAT XI-V 19 Nov 04:14:33 04:19:03 57° 259° (W) 04:23:36 437.345
AO-7 19 Nov 04:15:24 04:23:47 88° 288° (WNW) 04:32:10 .
AO-85 19 Nov 04:15:51 04:19:06 26° 112° (ESE) 04:22:25 145.980
ITAMSAT 1 19 Nov 04:42:16 04:47:17 50° 288° (WNW) 04:52:16 435.822/435.867
KKS-1 19 Nov 04:43:06 04:47:32 66° 75° (ENE) 04:51:59 437.445
DOVE 4 19 Nov 04:43:47 04:48:18 30° 95° (E) 04:52:37 437.250
BEESAT 2 19 Nov 04:47:02 04:50:51 43° 304° (WNW) 04:54:44 435.950
ISS 19 Nov 04:47:17 04:50:31 60° 39° (NE) 04:53:44 437.550
